Temperature
11 11 12 12 12 12 12 12 12 12 12 12 12 13 13 13 13 13 13 13 14 14 13 14 13 13 13 13 13 13 13 13 13 12 12 12 13 13 12 12 12 12 12
10 11 11 11 12 12 12 12 12 12 12 12 12 12 12 12 12 13 13 13 13 13 13 13 13 13 13 13 13 13 13 12 12 12 12 11 12 12 12 12 12 12 12
9 10 10 11 11 11 12 12 12 12 12 12 12 12 12 12 12 12 12 12 13 13 13 13 13 13 13 13 13 12 12 12 12 12 12 11 11 11 11 11 11 11 11
9 9 10 10 11 11 11 11 11 11 11 11 11 12 12 12 12 12 12 12 12 12 13 13 13 13 12 12 12 12 12 12 12 11 11 12 12 11 11 11 11 11 11
9 9 9 10 10 10 11 11 11 11 11 11 11 11 11 11 11 11 11 12 12 12 12 12 12 12 12 12 12 12 12 11 11 11 11 11 11 11 11 10 10 10 10
9 9 9 10 10 10 10 10 10 10 10 10 10 10 10 11 11 11 11 11 11 11 12 12 12 12 12 11 11 11 11 11 11 11 11 11 11 11 11 10 10 10 10
8 8 9 9 9 9 10 10 10 10 10 10 10 10 10 10 10 10 10 11 11 11 11 11 11 11 11 11 11 11 11 11 11 11 11 11 11 11 11 10 10 10 9
8 8 8 8 9 9 9 9 9 9 9 9 9 9 9 9 10 10 10 10 10 10 10 11 11 10 10 10 10 10 10 10 10 10 10 10 10 10 10 10 10 9 9
7 7 8 8 8 8 8 8 8 8 9 9 9 9 9 9 9 9 9 10 10 10 10 10 10 10 10 10 10 10 10 10 10 10 10 10 10 10 10 10 9 9 8
7 7 7 7 7 8 8 8 8 8 8 8 8 8 8 9 9 9 9 9 9 9 9 9 10 10 9 9 9 9 9 9 9 9 9 9 9 9 9 9 9 9 9
7 7 7 7 7 7 7 7 7 7 8 8 8 8 8 8 8 9 9 9 9 8 8 9 9 9 9 9 9 8 8 8 8 8 8 8 8 8 8 8 8 8 8
6 6 6 7 7 7 7 7 7 7 7 7 7 7 7 8 8 8 8 8 8 8 8 8 8 8 8 8 8 8 8 8 8 8 8 8 8 8 8 8 8 8 8
6 6 6 6 6 6 6 6 6 6 6 6 7 7 7 7 7 8 8 8 8 8 8 7 7 7 7 7 7 7 7 7 7 7 7 7 7 7 7 7 7 7 7
6 6 6 6 6 6 6 6 6 6 6 6 6 6 6 6 7 7 7 7 7 7 7 7 7 7 7 7 7 7 7 6 7 7 7 7 7 7 7 7 7 7 7
5 5 5 5 5 5 5 5 5 6 6 6 6 6 6 6 6 6 6 6 6 6 6 6 6 6 6 6 6 6 6 6 6 6 6 6 6 6 6 6 6 6 6
5 5 5 5 5 5 5 5 5 5 5 5 5 5 5 5 5 5 5 5 6 6 6 6 6 6 6 5 5 5 5 5 5 5 5 5 6 6 6 6 5 5 5
5 5 5 4 4 4 4 4 4 4 5 5 5 5 4 4 5 5 5 5 5 5 5 5 5 5 5 5 5 4 4 4 5 5 5 5 5 5 5 5 5 4 4
5 5 4 4 4 4 4 4 4 4 4 4 4 4 4 4 4 4 4 4 4 4 4 4 4 4 4 4 4 4 4 4 4 4 4 4 4 4 4 4 4 4 4
5 5 4 4 4 4 4 4 4 4 3 3 4 4 4 4 4 4 4 4 4 4 4 4 4 4 4 3 3 3 3 3 4 4 4 4 4 4 4 3 3 3 3
5 4 4 4 4 4 3 3 3 3 3 3 3 3 3 3 3 3 3 3 3 3 3 3 3 3 3 3 3 3 3 3 3 3 3 3 3 3 3 3 3 3 3
4 4 4 4 3 3 3 3 3 3 3 3 3 3 3 3 3 3 3 3 3 3 3 3 2 2 2 2 2 2 2 3 3 3 3 3 3 2 2 2 2 2 2
4 4 4 3 3 3 3 3 3 2 2 2 2 2 2 2 2 2 2 2 2 2 2 2 2 2 2 2 2 2 2 2 2 2 2 2 2 2 2 2 1 1 1
4 3 3 3 3 2 2 2 2 2 2 2 2 2 2 2 2 2 2 2 1 1 1 1 1 1 1 1 1 1 1 1 1 1 1 1 1 1 1 1 1 1 0
3 3 3 3 2 2 2 2 2 2 2 2 2 1 1 1 1 1 1 1 1 1 1 1 0 1 1 1 1 1 1 1 1 1 1 1 1 0 0 -0 -0 -0 -0
3 3 2 2 2 2 2 2 2 1 1 1 1 1 1 1 1 1 1 0 0 0 0 0 -0 -0 0 0 0 0 0 0 0 0 -0 -0 -0 -0 -0 -1 -1 -1 -1
3 2 2 2 2 1 1 1 1 1 1 1 1 0 0 0 0 0 0 0 -0 -0 -0 -0 -0 -0 -0 -0 -0 -0 -0 -0 -0 -0 -0 -1 -1 -1 -1 -1 -1 -2 -2
Wind_Speed
2 2 2 2 3 4 4 4 4 3 4 3 3 3 3 3 4 5 7 8 9 10 8 7 7 7 7 8 7 5 4 3 3 1 1 2 2 3 4 3 4 5 7
3 3 3 2 3 3 4 4 3 3 3 3 3 2 3 3 4 4 4 6 7 9 8 8 7 7 6 7 7 5 4 3 4 3 2 2 3 3 3 3 4 4 5
4 3 3 2 2 2 3 3 3 3 3 3 2 2 1 1 2 2 3 4 6 7 8 8 8 7 7 8 8 8 7 5 5 4 4 3 5 2 2 3 4 4 4
4 4 4 3 2 2 2 2 3 3 2 2 2 3 3 3 3 4 4 4 4 5 6 7 7 7 7 7 8 7 5 6 6 4 4 3 3 3 3 2 3 4 5
4 4 4 3 3 3 3 2 3 2 2 2 2 2 2 2 2 3 4 4 4 5 5 5 7 7 7 7 7 7 6 6 6 5 3 3 2 2 3 4 3 2 3
5 5 4 4 5 5 4 3 3 2 1 1 1 2 2 2 2 3 4 4 4 4 5 5 5 6 6 7 7 7 7 7 6 5 4 4 3 4 4 4 3 4 3
5 5 6 7 6 7 6 5 5 3 2 1 0 1 1 3 4 4 4 4 4 3 5 5 5 5 5 6 7 7 7 8 8 8 6 6 6 4 4 4 3 3 2
5 5 6 6 5 6 6 5 5 4 4 2 1 1 1 2 3 3 3 4 4 4 5 6 5 6 6 5 6 6 7 7 8 9 8 6 5 5 4 4 4 3 3
5 5 5 5 5 5 5 4 4 4 4 4 4 3 2 2 2 3 3 3 3 3 4 5 6 6 6 6 5 5 7 7 8 8 9 7 6 5 5 5 5 6 6
4 5 5 5 5 5 4 5 5 4 4 4 4 4 3 2 1 1 2 2 3 3 4 5 5 5 6 6 6 5 6 7 7 6 7 6 5 5 5 5 5 5 5
3 3 4 4 4 5 5 5 5 5 5 5 4 4 4 3 3 1 2 2 2 3 4 4 5 5 5 5 5 5 6 7 7 6 7 7 6 5 5 5 5 5 4
2 3 3 4 5 6 6 5 5 5 5 4 5 5 5 5 5 3 3 3 2 3 4 4 4 4 4 4 5 5 5 6 7 7 7 7 5 6 5 5 5 5 4
3 3 4 4 4 5 5 5 4 4 4 5 5 5 5 5 5 5 4 3 3 3 2 2 4 4 4 4 5 5 5 5 6 6 7 7 6 6 5 6 6 5 4
3 4 4 4 3 3 4 4 5 4 4 5 5 5 5 5 5 5 4 4 3 3 3 3 3 3 3 4 4 4 4 4 4 5 5 5 6 6 7 6 6 5 5
2 3 3 3 3 4 4 5 5 5 5 5 5 5 5 5 5 5 5 4 4 4 4 4 4 3 3 3 3 3 4 4 4 3 4 4 5 6 5 5 6 7 6
1 2 2 3 3 3 4 4 5 5 5 4 4 5 5 5 5 5 5 5 5 4 4 4 4 4 4 4 4 4 3 4 4 3 3 2 3 4 5 6 7 8 8
0 0 1 2 2 3 3 3 4 4 4 4 4 5 5 5 5 5 4 4 4 4 4 4 4 4 5 5 5 4 3 4 4 4 3 2 2 3 4 5 7 5 6
1 0 1 2 3 3 3 3 4 4 5 5 5 5 5 5 5 5 5 5 4 4 4 4 4 4 4 4 4 4 3 3 3 4 4 4 3 4 6 6 5 4 3
2 1 0 1 2 2 3 4 4 5 5 5 5 6 5 5 5 5 5 4 4 4 4 4 4 4 4 3 3 3 2 2 2 2 3 4 5 7 9 8 7 5 3
1 1 1 2 2 3 3 3 4 4 5 5 5 6 5 5 5 5 5 4 3 4 4 4 4 4 3 4 4 3 2 2 2 1 2 4 5 8 8 7 8 7 4
2 2 2 1 1 2 2 3 3 4 5 5 5 5 5 5 5 4 4 4 4 4 3 4 4 3 3 4 4 3 1 2 2 2 1 2 5 7 7 7 6 7 7
1 2 1 0 2 2 2 2 3 4 5 5 5 5 5 5 4 4 4 4 4 3 3 3 4 3 3 4 4 4 2 1 2 2 2 2 5 6 6 5 8 11 9
2 1 1 0 1 2 1 1 3 4 4 4 5 5 5 5 5 4 4 4 4 3 3 3 3 4 3 3 5 4 1 1 1 1 3 4 5 5 5 6 9 9 6
2 1 1 1 1 2 2 2 3 3 3 4 5 5 5 5 5 4 3 3 3 3 3 3 3 3 3 3 2 2 1 1 1 2 3 5 5 4 5 6 5 4 5
2 2 2 2 2 2 2 3 3 3 3 4 4 4 4 4 4 4 4 4 3 4 4 3 3 3 3 4 4 2 1 1 2 3 3 2 2 3 3 3 3 4 4
2 2 2 2 2 1 2 2 2 2 3 3 4 3 3 4 4 4 4 6 6 7 6 5 4 3 4 5 4 3 2 2 4 4 3 3 3 3 4 4 4 3 4
Wind_Direction
175 125 139 144 106 111 129 137 137 155 167 168 165 170 184 191 198 192 186 186 184 184 185 186 189 192 199 204 201 205 204 209 180 165 265 289 270 237 223 204 190 191 190
90 105 114 111 124 133 125 133 150 143 147 162 169 167 181 197 208 202 195 199 196 193 191 189 195 197 199 202 202 198 202 211 189 178 192 251 274 266 243 217 200 201 184
96 91 78 62 110 124 138 148 143 129 134 140 137 137 136 167 193 208 206 216 215 208 201 194 193 198 199 205 208 203 202 213 213 197 190 202 231 240 245 230 209 195 192
83 85 77 64 68 94 102 109 116 115 119 125 132 156 179 196 208 204 215 218 218 211 209 202 196 201 205 209 211 209 212 204 215 220 221 214 186 202 234 250 224 202 199
66 71 71 76 77 82 89 91 95 104 98 122 156 162 195 205 204 195 213 220 220 218 209 204 199 204 209 212 211 211 214 213 215 215 217 227 226 204 206 226 224 224 216
50 54 49 49 44 45 53 65 75 80 120 127 137 163 184 191 192 200 219 227 230 227 215 210 205 210 213 212 214 213 214 219 219 219 213 210 215 217 207 219 216 216 216
53 54 51 49 45 44 43 50 58 45 31 59 12 226 202 208 208 212 218 228 235 245 226 219 218 221 224 221 217 217 217 218 221 224 227 223 224 216 206 211 212 208 205
53 54 53 55 50 45 42 44 49 36 25 22 343 323 285 240 225 219 220 226 232 234 232 222 222 226 228 231 227 228 225 223 226 229 225 228 226 216 208 203 199 207 211
59 55 53 51 48 43 36 36 44 36 30 26 22 8 335 281 241 236 229 230 241 242 239 232 226 226 228 231 232 239 236 229 228 229 226 226 225 216 212 201 197 197 212
53 50 46 40 37 35 31 33 37 38 33 27 17 2 351 333 308 278 269 261 257 249 243 244 235 233 229 225 229 238 241 238 237 236 229 230 229 219 215 207 206 205 205
64 49 38 31 31 30 31 30 26 26 23 18 9 6 1 359 358 334 292 276 267 256 242 239 235 228 226 225 231 241 243 242 240 236 230 232 227 221 216 206 202 198 185
59 49 47 38 32 29 24 23 18 17 12 7 6 4 5 5 3 353 333 326 302 271 249 237 236 236 231 227 226 239 245 241 241 236 230 232 224 217 209 201 200 193 175
52 43 45 38 26 19 15 12 11 5 360 3 5 5 4 4 356 347 341 340 324 309 291 253 241 240 237 237 236 232 238 241 246 243 233 227 215 219 210 200 194 180 163
59 44 35 22 11 10 8 4 3 360 359 4 5 3 356 352 345 338 333 331 323 315 310 289 269 254 245 239 241 241 240 244 250 247 237 223 215 213 202 192 184 165 155
46 39 23 4 359 4 0 360 1 360 358 2 1 351 345 347 346 344 338 335 329 321 313 302 292 279 258 245 241 240 240 239 248 255 246 227 216 207 193 181 170 161 157
52 18 13 5 356 355 353 357 357 354 354 360 351 342 348 349 346 343 340 340 335 323 317 306 295 286 274 264 261 253 239 235 233 242 254 233 195 180 174 167 160 160 158
148 358 342 340 335 334 345 347 343 348 360 360 352 349 349 346 341 341 343 337 328 324 315 309 304 296 281 272 263 260 248 238 231 222 219 223 180 161 149 137 128 137 154
198 253 329 340 340 345 349 350 354 2 7 2 354 348 344 340 341 345 342 333 327 322 315 315 307 301 295 282 262 259 247 237 234 223 207 198 183 168 150 135 122 112 119
196 211 248 350 358 358 353 3 5 5 6 355 347 339 336 338 341 339 332 326 328 329 324 321 321 311 307 299 274 260 224 225 237 223 201 184 177 170 155 144 136 122 103
143 123 65 43 24 352 0 19 8 3 350 339 336 335 334 336 332 326 324 327 330 326 329 329 324 312 304 302 289 269 212 210 222 213 198 184 180 173 164 153 149 149 145
145 122 99 67 343 344 13 19 3 345 331 332 338 341 342 338 332 331 331 333 335 335 336 331 323 315 307 310 308 306 246 206 194 192 201 194 182 172 165 155 153 160 145
135 130 126 350 341 358 25 7 340 327 333 339 344 344 342 341 343 342 340 341 338 336 332 330 328 329 326 327 322 324 297 205 176 188 190 179 168 162 157 155 156 149 136
166 159 158 225 340 348 17 341 318 328 341 346 343 340 340 344 345 345 341 341 340 334 328 327 325 327 331 331 330 326 330 102 102 165 167 153 145 144 147 155 152 143 134
183 171 147 174 296 320 332 308 316 336 347 344 337 338 342 344 346 344 339 340 337 332 325 319 316 314 315 314 319 322 337 107 99 127 145 136 125 115 133 144 140 135 144
188 176 183 207 263 303 318 327 337 350 345 336 332 335 338 336 338 339 335 327 313 313 313 299 293 295 295 292 301 306 287 175 164 135 120 118 129 133 136 131 131 135 140
190 192 201 217 247 264 291 317 332 337 333 330 329 328 331 331 331 330 331 340 340 337 337 332 324 305 300 303 303 298 271 200 165 142 152 161 169 174 173 168 163 159 161
Height
1459 1460 1462 1464 1464 1467 1470 1472 1475 1477 1480 1482 1484 1486 1488 1492 1495 1497 1500 1503 1506 1508 1510 1511 1514 1516 1517 1519 1521 1523 1524 1525 1527 1527 1527 1527 1528 1528 1528 1528 1528 1528 1528
1457 1459 1461 1462 1463 1465 1467 1469 1472 1474 1476 1479 1481 1484 1486 1488 1491 1493 1496 1499 1502 1503 1505 1507 1509 1511 1513 1514 1516 1518 1519 1520 1522 1522 1522 1522 1523 1522 1522 1522 1523 1523 1523
1458 1459 1459 1461 1462 1464 1466 1468 1470 1472 1474 1476 1478 1481 1483 1484 1487 1489 1491 1494 1497 1498 1500 1502 1504 1506 1508 1509 1511 1513 1513 1514 1516 1517 1518 1517 1515 1516 1516 1517 1517 1518 1518
1458 1458 1459 1461 1461 1462 1464 1466 1468 1470 1472 1474 1476 1478 1479 1479 1481 1484 1487 1490 1492 1494 1496 1497 1499 1501 1503 1504 1505 1507 1508 1509 1509 1511 1511 1512 1511 1512 1510 1511 1512 1512 1513
1459 1459 1460 1460 1461 1461 1463 1464 1466 1468 1469 1471 1473 1475 1476 1477 1479 1481 1483 1485 1488 1490 1491 1492 1494 1495 1497 1498 1500 1501 1502 1503 1504 1504 1505 1505 1505 1505 1505 1505 1505 1506 1507
1460 1460 1460 1460 1460 1461 1462 1464 1464 1466 1468 1469 1470 1472 1472 1473 1475 1477 1479 1480 1482 1484 1486 1487 1488 1490 1491 1492 1494 1495 1496 1497 1498 1498 1499 1499 1499 1499 1499 1499 1498 1500 1501
1462 1462 1461 1461 1461 1461 1462 1463 1464 1465 1466 1467 1468 1469 1469 1471 1472 1473 1475 1476 1477 1479 1480 1482 1483 1484 1485 1487 1488 1489 1489 1490 1491 1491 1492 1492 1493 1494 1493 1494 1493 1494 1495
1464 1463 1463 1463 1463 1463 1463 1463 1463 1464 1465 1465 1466 1466 1467 1468 1469 1470 1471 1472 1473 1474 1475 1477 1478 1479 1480 1481 1481 1482 1483 1483 1484 1484 1485 1485 1486 1487 1487 1488 1488 1488 1489
1466 1465 1465 1465 1464 1464 1464 1464 1464 1464 1464 1463 1463 1464 1464 1465 1465 1466 1467 1468 1468 1469 1470 1471 1472 1473 1474 1474 1475 1475 1476 1476 1477 1477 1478 1478 1478 1479 1480 1481 1482 1483 1482
1467 1467 1467 1466 1466 1465 1464 1464 1463 1463 1463 1463 1462 1462 1462 1462 1462 1463 1463 1464 1464 1465 1465 1465 1466 1467 1467 1468 1468 1468 1469 1469 1469 1469 1470 1470 1471 1471 1473 1474 1475 1476 1477
1468 1468 1467 1467 1466 1465 1464 1463 1462 1462 1462 1461 1461 1460 1460 1459 1459 1459 1459 1459 1459 1460 1460 1460 1461 1461 1461 1461 1461 1461 1462 1462 1462 1462 1462 1462 1463 1464 1465 1467 1468 1469 1470
1469 1468 1468 1467 1466 1465 1464 1463 1462 1461 1461 1460 1459 1458 1457 1456 1456 1455 1455 1455 1455 1455 1455 1455 1456 1456 1456 1456 1455 1455 1456 1455 1455 1455 1456 1456 1457 1457 1458 1460 1461 1462 1463
1469 1468 1467 1467 1466 1465 1464 1463 1462 1461 1460 1459 1458 1457 1455 1454 1453 1453 1452 1452 1451 1451 1451 1451 1451 1451 1451 1451 1451 1451 1451 1450 1450 1450 1449 1449 1450 1451 1452 1453 1454 1455 1457
1469 1468 1467 1467 1466 1465 1464 1462 1461 1460 1459 1457 1456 1455 1453 1452 1451 1450 1450 1449 1448 1447 1447 1446 1446 1446 1446 1446 1446 1446 1445 1445 1445 1445 1444 1445 1445 1445 1446 1447 1449 1450 1452
1469 1468 1468 1467 1465 1464 1463 1462 1460 1459 1457 1456 1454 1453 1452 1451 1450 1448 1447 1446 1445 1444 1444 1443 1442 1442 1441 1441 1441 1441 1441 1440 1440 1440 1440 1440 1441 1441 1442 1443 1444 1446 1447
1469 1468 1467 1466 1464 1463 1462 1461 1459 1458 1456 1455 1453 1451 1450 1449 1447 1446 1445 1443 1442 1442 1441 1440 1438 1437 1436 1436 1436 1436 1436 1436 1436 1436 1436 1436 1436 1437 1439 1440 1441 1443 1444
1468 1467 1466 1465 1464 1463 1461 1460 1459 1457 1455 1453 1452 1450 1448 1447 1445 1444 1442 1441 1439 1438 1437 1436 1434 1433 1432 1432 1432 1432 1432 1432 1432 1432 1432 1432 1433 1434 1435 1436 1437 1439 1441
1467 1466 1465 1464 1463 1462 1461 1459 1457 1455 1453 1452 1450 1448 1447 1445 1443 1441 1440 1438 1436 1435 1434 1432 1430 1429 1428 1428 1428 1428 1428 1428 1428 1429 1429 1429 1430 1430 1431 1433 1435 1436 1438
1465 1465 1464 1463 1462 1461 1460 1458 1456 1454 1452 1451 1449 1447 1445 1443 1441 1439 1438 1436 1434 1433 1431 1429 1427 1426 1425 1425 1425 1425 1425 1424 1425 1425 1425 1425 1426 1427 1428 1430 1431 1434 1436
1464 1464 1463 1462 1461 1460 1459 1457 1455 1453 1452 1450 1448 1446 1444 1442 1440 1438 1436 1434 1432 1430 1428 1426 1425 1424 1422 1422 1422 1422 1421 1421 1421 1421 1422 1423 1423 1425 1425 1427 1428 1430 1433
1463 1463 1462 1461 1460 1459 1458 1456 1454 1452 1451 1449 1447 1445 1442 1440 1438 1436 1434 1432 1430 1427 1425 1424 1423 1422 1420 1419 1419 1418 1418 1418 1418 1419 1419 1420 1421 1422 1423 1424 1426 1428 1430
1461 1461 1460 1460 1459 1458 1456 1455 1453 1452 1450 1447 1445 1443 1441 1439 1436 1435 1432 1430 1428 1426 1424 1422 1421 1420 1419 1418 1417 1417 1416 1416 1416 1416 1417 1417 1419 1420 1421 1422 1423 1426 1428
1459 1459 1458 1458 1458 1457 1455 1454 1452 1450 1448 1446 1444 1442 1439 1437 1435 1433 1431 1429 1427 1425 1422 1421 1419 1418 1417 1417 1416 1415 1415 1414 1414 1414 1415 1416 1417 1418 1419 1420 1421 1423 1425
1456 1456 1456 1456 1455 1454 1454 1452 1451 1449 1447 1444 1442 1440 1438 1436 1434 1432 1430 1428 1425 1423 1421 1420 1418 1417 1416 1415 1414 1413 1413 1413 1413 1413 1414 1414 1415 1416 1417 1419 1420 1422 1424
1454 1454 1454 1453 1453 1452 1451 1450 1448 1447 1445 1443 1441 1439 1437 1435 1433 1431 1429 1427 1424 1422 1420 1418 1417 1415 1414 1413 1413 1412 1411 1411 1411 1411 1412 1413 1413 1414 1415 1417 1418 1420 1422
1452 1451 1451 1451 1451 1450 1449 1448 1446 1445 1443 1441 1439 1437 1435 1434 1432 1429 1427 1425 1423 1421 1419 1417 1415 1414 1413 1411 1410 1410 1410 1409 1410 1410 1411 1411 1412 1413 1414 1415 1417 1418 1420